Alva, OK

4:52 AM CST on February 10, 2016 (GMT -0600)
Alva Regional

Weather History for KAVK - February, 2012

Change the Weather History Date:

Monday, February 27, 2012

  Actual Average Record
Temperature  
Mean Temperature 45 °F -  
Max Temperature 53 °F 59 °F 83 °F (1976)
Min Temperature 37 °F 32 °F 10 °F (1962)
Degree Days  
Heating Degree Days 20    
Moisture  
Dew Point 25 °F    
Average Humidity 49    
Maximum Humidity 65    
Minimum Humidity 31    
Precipitation  
Precipitation 0.00 in - - ()
Sea Level Pressure  
Sea Level Pressure 30.32 in    
Wind  
Wind Speed 11 mph (NE)    
Max Wind Speed 18 mph    
Max Gust Speed 22 mph    
Visibility 10 miles    
Events      
Averages and records for this station are not official NWS values.
T = Trace of Precipitation, MM = Missing Value Source: NWS Daily Summary

Daily Weather History Graph

Daily Weather History Graph

Search for Another Location

Airport or City:

Trip Planner

Search our weather history database for the weather conditions in past years. The results will help you decide how hot, cold, wet, or windy it might be!

Date:

Astronomy

Feb. 27, 2012 Rise Set
Actual Time 7:08 AM CST 6:26 PM CST
Civil Twilight 6:42 AM CST 6:52 PM CST
Nautical Twilight 6:12 AM CST 7:22 PM CST
Astronomical Twilight 5:42 AM CST 7:52 PM CST
Moon 9:49 AM CST (2/27) No Moon Set
Length of Visible Light 12h 10m
Length of Day
11h 17m
Waxing Crescent, 29% of the Moon is Illuminated
Feb 27
Waxing Crescent
Feb 29
First Quarter
Mar 8
Full
Mar 14
Last Quarter
Mar 22
New

Hourly Weather History & Observations

Time (CST) Temp. Windchill Dew Point Humidity Pressure Visibility Wind Dir Wind Speed Gust Speed Precip Events Conditions
12:10 AM 39.2 °F 33.0 °F 15.8 °F 39% 30.25 in 10.0 mi North 9.2 mph - N/A   Overcast
12:30 AM 37.4 °F 30.8 °F 17.6 °F 45% 30.26 in 10.0 mi North 9.2 mph - N/A   Overcast
12:50 AM 37.4 °F 30.3 °F 17.6 °F 45% 30.26 in 10.0 mi North 10.4 mph - N/A   Mostly Cloudy
1:10 AM 37.4 °F 29.8 °F 15.8 °F 41% 30.27 in 10.0 mi North 11.5 mph - N/A   Mostly Cloudy
1:30 AM 37.4 °F 30.3 °F 15.8 °F 41% 30.27 in 10.0 mi North 10.4 mph - N/A   Overcast
1:50 AM 39.2 °F 32.5 °F 17.6 °F 42% 30.28 in 10.0 mi North 10.4 mph - N/A   Overcast
2:10 AM 39.2 °F 33.0 °F 15.8 °F 39% 30.29 in 10.0 mi NNE 9.2 mph - N/A   Overcast
2:30 AM 39.2 °F 33.6 °F 17.6 °F 42% 30.30 in 10.0 mi North 8.1 mph - N/A   Overcast
2:50 AM 39.2 °F 35.9 °F 19.4 °F 45% 30.30 in 10.0 mi North 4.6 mph - N/A   Overcast
3:10 AM 44.6 °F 38.4 °F 15.8 °F 31% 30.29 in 10.0 mi NE 12.7 mph - N/A   Overcast
3:30 AM 41.0 °F 35.2 °F 19.4 °F 42% 30.30 in 10.0 mi NE 9.2 mph - N/A   Overcast
3:50 AM 41.0 °F 35.2 °F 19.4 °F 42% 30.30 in 10.0 mi NE 9.2 mph - N/A   Overcast
4:10 AM 41.0 °F 35.8 °F 21.2 °F 45% 30.30 in 10.0 mi NE 8.1 mph - N/A   Overcast
4:50 AM 41.0 °F 34.3 °F 21.2 °F 45% 30.31 in 10.0 mi NNE 11.5 mph - N/A   Overcast
5:10 AM 41.0 °F 33.9 °F 23.0 °F 49% 30.31 in 10.0 mi NE 12.7 mph - N/A   Overcast
5:30 AM 41.0 °F 33.9 °F 23.0 °F 49% 30.31 in 10.0 mi NE 12.7 mph - N/A   Overcast
5:50 AM 41.0 °F 34.7 °F 23.0 °F 49% 30.32 in 10.0 mi NE 10.4 mph - N/A   Overcast
6:10 AM 41.0 °F 35.2 °F 24.8 °F 53% 30.33 in 10.0 mi NE 9.2 mph - N/A   Overcast
6:30 AM 41.0 °F 34.3 °F 24.8 °F 53% 30.34 in 10.0 mi NE 11.5 mph - N/A   Overcast
6:50 AM 41.0 °F 33.9 °F 23.0 °F 49% 30.35 in 10.0 mi NE 12.7 mph - N/A   Overcast
7:10 AM 41.0 °F 34.3 °F 23.0 °F 49% 30.36 in 10.0 mi NE 11.5 mph - N/A   Overcast
7:30 AM 41.0 °F 33.5 °F 23.0 °F 49% 30.36 in 10.0 mi NE 13.8 mph - N/A   Overcast
7:50 AM 39.2 °F 31.2 °F 23.0 °F 52% 30.38 in 10.0 mi NE 13.8 mph - N/A   Overcast
8:10 AM 39.2 °F 31.2 °F 24.8 °F 56% 30.39 in 10.0 mi NE 13.8 mph - N/A   Overcast
8:30 AM 39.2 °F 30.5 °F 24.8 °F 56% 30.39 in 10.0 mi NE 16.1 mph 20.7 mph N/A   Overcast
8:50 AM 39.2 °F 29.8 °F 24.8 °F 56% 30.40 in 10.0 mi NE 18.4 mph - N/A   Overcast
9:10 AM 37.4 °F 28.5 °F 24.8 °F 60% 30.41 in 10.0 mi NE 15.0 mph 21.9 mph N/A   Overcast
9:30 AM 37.4 °F 28.5 °F 24.8 °F 60% 30.41 in 10.0 mi NE 15.0 mph 20.7 mph N/A   Overcast
10:10 AM 37.4 °F 27.8 °F 26.6 °F 65% 30.40 in 10.0 mi NE 17.3 mph - N/A   Overcast
10:30 AM 39.2 °F 31.2 °F 26.6 °F 61% 30.40 in 10.0 mi NE 13.8 mph - N/A   Overcast
10:50 AM 39.2 °F 31.6 °F 26.6 °F 61% 30.41 in 10.0 mi ENE 12.7 mph - N/A   Overcast
11:10 AM 41.0 °F 33.5 °F 26.6 °F 57% 30.41 in 10.0 mi NE 13.8 mph - N/A   Overcast
11:30 AM 42.8 °F 35.8 °F 26.6 °F 53% 30.41 in 10.0 mi ENE 13.8 mph - N/A   Overcast
11:50 AM 42.8 °F 36.2 °F 26.6 °F 53% 30.40 in 10.0 mi East 12.7 mph 17.3 mph N/A   Overcast
12:10 PM 44.6 °F 39.2 °F 26.6 °F 49% 30.39 in 10.0 mi East 10.4 mph - N/A   Overcast
12:30 PM 44.6 °F 38.1 °F 26.6 °F 49% 30.37 in 10.0 mi ENE 13.8 mph 18.4 mph N/A   Overcast
12:50 PM 46.4 °F 40.4 °F 28.4 °F 50% 30.36 in 10.0 mi ENE 13.8 mph 18.4 mph N/A   Overcast
1:10 PM 46.4 °F 40.4 °F 26.6 °F 46% 30.35 in 10.0 mi East 13.8 mph 20.7 mph N/A   Overcast
1:30 PM 46.4 °F 40.7 °F 28.4 °F 50% 30.34 in 10.0 mi East 12.7 mph - N/A   Overcast
1:50 PM 48.2 °F - 28.4 °F 46% 30.33 in 10.0 mi East 11.5 mph - N/A   Overcast
2:10 PM 48.2 °F - 28.4 °F 46% 30.31 in 10.0 mi East 11.5 mph 17.3 mph N/A   Overcast
2:30 PM 50.0 °F - 30.2 °F 47% 30.30 in 10.0 mi ESE 15.0 mph - N/A   Overcast
2:50 PM 50.0 °F - 30.2 °F 47% 30.29 in 10.0 mi East 13.8 mph - N/A   Overcast
3:10 PM 50.0 °F - 32.0 °F 50% 30.28 in 10.0 mi East 13.8 mph - N/A   Scattered Clouds
3:30 PM 51.8 °F - 32.0 °F 47% 30.28 in 10.0 mi East 12.7 mph 18.4 mph N/A   Clear
3:50 PM 50.0 °F - 32.0 °F 50% 30.27 in 10.0 mi ENE 12.7 mph - N/A   Clear
4:10 PM 53.6 °F - 32.0 °F 44% 30.26 in 10.0 mi ENE 11.5 mph - N/A   Clear
4:30 PM 53.6 °F - 32.0 °F 44% 30.25 in 10.0 mi East 12.7 mph 16.1 mph N/A   Clear
4:50 PM 53.6 °F - 32.0 °F 44% 30.25 in 10.0 mi East 10.4 mph - N/A   Mostly Cloudy
5:10 PM 53.6 °F - 32.0 °F 44% 30.24 in 10.0 mi East 11.5 mph - N/A   Overcast
5:30 PM 53.6 °F - 32.0 °F 44% 30.23 in 10.0 mi East 10.4 mph - N/A   Overcast
5:50 PM 51.8 °F - 33.8 °F 50% 30.23 in 10.0 mi East 9.2 mph - N/A   Overcast
6:10 PM 51.8 °F - 33.8 °F 50% 30.22 in 10.0 mi East 10.4 mph - N/A   Overcast
6:30 PM 50.0 °F - 33.8 °F 54% 30.22 in 10.0 mi East 9.2 mph - N/A   Mostly Cloudy
6:50 PM 50.0 °F - 35.6 °F 58% 30.22 in 10.0 mi East 9.2 mph - N/A   Overcast
7:10 PM 50.0 °F - 33.8 °F 54% 30.22 in 10.0 mi East 8.1 mph - N/A   Overcast
7:50 PM 50.0 °F - 35.6 °F 58% 30.19 in 10.0 mi East 10.4 mph - N/A   Overcast
8:10 PM 50.0 °F - 33.8 °F 54% 30.20 in 10.0 mi East 8.1 mph - N/A   Overcast
8:30 PM 50.0 °F - 35.6 °F 58% 30.20 in 10.0 mi ESE 6.9 mph - N/A   Overcast
8:50 PM 50.0 °F - 35.6 °F 58% 30.20 in 10.0 mi ESE 10.4 mph - N/A   Overcast
9:10 PM 50.0 °F - 35.6 °F 58% 30.20 in 10.0 mi SE 11.5 mph - N/A   Overcast
9:30 PM 50.0 °F - 35.6 °F 58% 30.20 in 10.0 mi ESE 10.4 mph - N/A   Overcast
9:50 PM 50.0 °F - 35.6 °F 58% 30.20 in 10.0 mi ESE 12.7 mph - N/A   Overcast
10:10 PM 50.0 °F - 35.6 °F 58% 30.20 in 10.0 mi ESE 10.4 mph - N/A   Overcast
10:30 PM 50.0 °F - 35.6 °F 58% 30.19 in 10.0 mi ESE 10.4 mph - N/A   Overcast
10:50 PM 48.2 °F - 35.6 °F 62% 30.19 in 10.0 mi ESE 10.4 mph - N/A   Overcast
11:10 PM 48.2 °F - 35.6 °F 62% 30.18 in 10.0 mi ESE 10.4 mph - N/A   Overcast
11:30 PM 48.2 °F - 35.6 °F 62% 30.17 in 10.0 mi ESE 10.4 mph - N/A   Overcast
11:50 PM 48.2 °F - 35.6 °F 62% 30.15 in 10.0 mi SE 12.7 mph - N/A   Overcast